DW7214 Weather Reports


Display with metric or nautical units.
time (UTC)temp
F
wind
direction
speed
MPH
gust
MPH
rain 1hr
in
rain 24hr
in
rain mn
in
humidity
%
barometer
mb
20260904151537 54 236 0.0 0.0 0.04 0.73 0.19 95 1012.9
20260904150033 54 250 0.0 0.0 0.04 0.76 0.19 95 1012.7
20260904144526 54 221 0.0 2.0 0.02 0.76 0.17 95 1012.5
20260904143017 53 226 0.0 0.0 0.04 0.79 0.16 95 1012.4
20260904141526 53 226 0.0 2.0 0.03 0.79 0.15 95 1012.3
20260904140026 53 237 0.0 3.0 0.03 0.79 0.15 95 1012.1
20260904134526 53 225 0.0 2.0 0.03 0.80 0.15 95 1011.9
20260904133025 53 232 1.0 3.0 0.00 0.77 0.12 95 1011.8
20260904131524 53 212 0.0 3.0 0.00 0.78 0.12 95 1011.8
20260904130006 53 220 0.0 2.0 0.00 0.80 0.12 95 1011.6
20260904124510 53 229 2.0 3.0 0.00 0.81 0.12 95 1011.5
20260904123014 53 242 0.0 0.0 0.01 0.83 0.12 95 1011.5
20260904121527 53 241 0.0 2.0 0.01 0.86 0.12 95 1011.5
20260904120037 53 244 0.0 1.0 0.02 0.95 0.12 95 1011.4
20260904114507 53 276 0.0 3.0 0.04 0.97 0.12 95 1011.3
20260904113028 53 241 0.0 0.0 0.05 0.98 0.11 96 1011.2
20260904111524 53 275 0.0 0.0 0.06 0.99 0.11 96 1011.1
20260904110027 53 239 0.0 0.0 0.06 1.00 0.10 96 1011.2
20260904104528 53 239 0.0 0.0 0.05 0.98 0.08 95 1011.1
20260904103008 53 239 0.0 0.0 0.05 0.96 0.06 95 1011.2
20260904101516 53 239 0.0 0.0 0.05 0.95 0.05 95 1011.0
20260904100021 53 246 0.0 3.0 0.04 0.94 0.04 95 1010.8
20260904094526 53 244 0.0 2.0 0.03 0.93 0.03 95 1010.9
20260904093008 53 248 0.0 2.0 0.01 0.91 0.01 95 1010.7
20260904091510 53 242 0.0 2.0 0.00 0.90 0.00 95 1010.6
20260904090019 53 208 0.0 3.0 0.00 0.90 0.00 95 1010.7
20260904084526 52 242 1.0 2.0 0.00 0.90 0.00 95 1010.6
20260904083032 53 238 0.0 0.0 0.00 0.90 0.00 94 1010.7
20260904081514 53 234 0.0 3.0 0.00 0.90 0.00 95 1010.8
20260904080024 53 234 1.0 3.0 0.00 0.90 0.00 95 1010.7
20260904074530 54 230 0.0 0.0 0.00 0.90 0.00 95 1010.8
20260904073034 54 242 0.0 0.0 0.00 0.90 0.00 95 1010.8
20260904071530 54 232 0.0 0.0 0.00 0.90 0.00 95 1010.8
20260904070016 54 234 0.0 0.0 0.00 0.90 0.00 95 1010.7
20260904064520 54 232 0.0 0.0 0.00 0.90 0.90 95 1010.6
20260904063028 54 226 0.0 0.0 0.00 0.90 0.90 95 1010.6
20260904061529 54 233 0.0 0.0 0.00 0.90 0.90 95 1010.7
20260904060031 55 231 0.0 1.0 0.00 0.90 0.90 95 1010.7
20260904054518 55 234 0.0 2.0 0.00 0.90 0.90 95 1010.8
20260904053023 55 227 1.0 2.0 0.00 0.90 0.90 95 1010.8
20260904051532 55 234 0.0 2.0 0.00 0.90 0.90 95 1010.9
20260904050037 55 236 0.0 2.0 0.00 0.90 0.90 94 1010.9
20260904044541 55 229 0.0 0.0 0.00 0.90 0.90 94 1010.9
20260904043018 55 270 0.0 0.0 0.00 0.90 0.90 94 1010.9
20260904041506 55 239 0.0 0.0 0.00 0.90 0.90 94 1010.8
20260904040008 55 238 0.0 0.0 0.01 0.90 0.90 94 1010.8
20260904034511 55 238 0.0 0.0 0.01 0.90 0.90 93 1010.7
20260904033020 55 238 0.0 0.0 0.04 0.90 0.90 93 1010.5
20260904031504 55 9 0.0 0.0 0.07 0.90 0.90 92 1010.4
20260904030005 56 9 0.0 0.0 0.08 0.89 0.89 91 1010.3
20260904024510 56 9 0.0 2.0 0.11 0.89 0.89 90 1010.2
20260904023013 57 40 0.0 0.0 0.09 0.86 0.86 91 1010.2
20260904021518 57 40 0.0 0.0 0.06 0.83 0.83 91 1010.1
20260904020004 57 40 0.0 0.0 0.04 0.81 0.81 91 1010.1
20260904014506 57 40 0.0 0.0 0.02 0.78 0.78 89 1010.0
20260904013012 58 40 0.0 2.0 0.02 0.77 0.77 90 1010.0
20260904011516 58 51 1.0 4.0 0.02 0.77 0.77 89 1009.9
20260904010024 58 37 1.0 4.0 0.03 0.77 0.77 89 1010.1
20260904004505 58 280 0.0 0.0 0.03 0.76 0.76 90 1010.0
20260904003008 58 280 0.0 0.0 0.02 0.75 0.75 89 1010.0
20260904001515 58 90 0.0 0.0 0.02 0.75 0.75 89 1010.1
20260904000020 58 121 0.0 0.0 0.01 0.74 0.74 86 1010.3
20260903234528 58 194 0.0 2.0 0.00 0.73 0.73 85 1010.3
20260903233008 58 180 0.0 2.0 0.00 0.73 0.73 86 1010.2
20260903231511 58 57 1.0 3.0 0.00 0.73 0.73 84 1010.3
20260903230022 58 36 0.0 3.0 0.01 0.74 0.73 87 1010.3
20260903224523 57 108 0.0 3.0 0.01 0.74 0.73 88 1010.4
20260903223005 56 34 0.0 3.0 0.03 0.74 0.73 89 1010.6
20260903221508 57 37 1.0 3.0 0.04 0.74 0.73 90 1010.7
20260903220022 57 65 0.0 3.0 0.03 0.74 0.72 90 1010.7
20260903214525 57 118 1.0 5.0 0.04 0.74 0.72 88 1010.7
20260903213030 57 87 1.0 4.0 0.02 0.81 0.70 88 1010.5
20260903211509 58 153 0.0 3.0 0.01 0.83 0.69 89 1010.6
20260903210014 58 57 0.0 5.0 0.01 0.83 0.69 90 1010.5
20260903204517 57 257 1.0 6.0 0.03 0.82 0.68 89 1010.7
20260903203027 58 121 2.0 8.0 0.09 0.82 0.68 88 1010.7
20260903201532 57 38 1.0 4.0 0.13 0.82 0.68 1010.6
20260903200033 56 96 1.0 4.0 0.19 0.82 0.68 90 1010.6
20260903194533 56 113 0.0 6.0 0.18 0.79 0.65 92 1010.7
20260903193030 56 117 0.0 7.0 0.12 0.73 0.58 92 1010.6
20260903191544 56 109 2.0 5.0 0.08 0.70 0.55 91 1010.6
20260903190030 58 214 2.0 10.0 0.02 0.65 0.49 87 1010.8
20260903184513 59 146 4.0 9.0 0.00 0.63 0.47 86 1010.4
20260903183033 58 38 0.0 8.0 0.00 0.65 0.47 87 1010.4
20260903181528 57 44 1.0 6.0 0.00 0.73 0.47 89 1010.6
20260903180036 58 188 3.0 10.0 0.00 0.76 0.47 88 1010.5
20260903174520 58 146 2.0 5.0 0.00 0.76 0.47 88 1010.4
20260903173018 58 9 1.0 4.0 0.00 0.77 0.47 90 1010.4
20260903171528 57 161 2.0 8.0 0.01 0.81 0.47 91 1010.3
20260903170031 57 111 1.0 6.0 0.04 0.84 0.47 91 1010.3
20260903164530 57 98 1.0 5.0 0.05 0.86 0.47 93 1010.4
20260903163019 56 77 0.0 3.0 0.06 0.90 0.47 94 1010.6
20260903161533 55 109 1.0 2.0 0.10 0.93 0.46 94 1010.7
20260903160027 55 186 0.0 8.0 0.10 0.94 0.43 93 1011.0
20260903154533 55 111 0.0 3.0 0.11 0.95 0.42 94 1011.0
20260903153030 54 215 0.0 4.0 0.14 0.95 0.41 94 1011.0